Regional Weather Roundup
Issued by NWS Newport/Morehead, NC

Current Version | Previous Version | Text Only | Print | Product List | Glossary On
Versions: 1 2 3 4 5 6 7 8 9 10 11 12 13 14 15 16 17 18 19 20 21 22 23 24 25 26 27 28 29 30 31 32 33 34 35 36 37 38 39 40 41 42 43 44 45 46 47 48 49 50
000
ASUS42 KMHX 251425
RWRMHX
WEATHER ROUNDUP FOR EASTERN NORTH CAROLINA
NATIONAL WEATHER SERVICE NEWPORT/MOREHEAD CITY NC
1000 AM EDT FRI MAY 25 2018

NOTE: "FAIR" INDICATES FEW OR NO CLOUDS BELOW 12,000 FEET
WITH NO SIGNIFICANT WEATHER AND/OR OBSTRUCTIONS TO VISIBILITY

NCZ015>017-031-032-045>047-102-103-251500-
NORTH COAST

CITY           SKY/WX    TMP DP  RH WIND       PRES   REMARKS
EDENTON        FAIR      78  66  66 S7        30.15F
ELIZABETH CITY FAIR      78  65  63 S7        30.15S
KITTY HAWK     FAIR      76  59  54 CALM      30.14S
MANTEO         FAIR      77  60  56 SW8       30.16S

$$

NCZ045>047-081-094-103-104-251500-
CENTRAL COAST

CITY           SKY/WX    TMP DP  RH WIND       PRES   REMARKS
FRISCO         FAIR      79  65  62 SE8       30.15S

$$

NCZ095-097-098-100-101-251500-
SOUTHERN COAST

CITY           SKY/WX    TMP DP  RH WIND       PRES   REMARKS
BEAUFORT       FAIR      79  67  66 SE10      30.14S
CEDAR ISLAND   NOT AVBL
JACKSONVILLE   FAIR      78  69  73 S8        30.12F
PINEY ISLAND   NOT AVBL
WILMINGTON     PTSUNNY   78  70  76 SE8       30.13S


$$

NCZ011>013-027>030-043-044-078>080-089-090>093-098-251500-
COASTAL PLAIN

CITY           SKY/WX    TMP DP  RH WIND       PRES   REMARKS
AHOSKIE        FAIR      75  65  69 S5        30.14F
CLINTON        FAIR      76  70  80 S3        30.14S
ELIZABETHTOWN  FAIR      77  70  79 SE6       30.13F
GOLDSBORO      FAIR      77  67  72 SE6       30.13R
GREENVILLE     FAIR      79  64  61 S6        30.15F
HAVELOCK       MOSUNNY   81  68  64 SE6       30.14F
KENANSVILLE    FAIR      77  68  73 SE6       30.14S
KINSTON        MOSUNNY   77  66  69 SE6       30.15S
NEW BERN       FAIR      77  68  73 SE7       30.15S
RICHLANDS      FAIR      79  69  71 S8        30.14S
ROCKY MOUNT    FAIR      76  66  71 VRB6      30.15S
WASHINGTON     FAIR      80  66  62 CALM      30.15
WHITEVILLE     FAIR      78  70  76 S3        30.12F

$$

AMZ130-135-150-152-154-156-158-170-250-252-270-ANZ085-086-088-633-658-670-251500-
MARINE OBSERVATIONS

STATION/POSITION TIME  TEMP    WIND        PRES    WAVE   SWELL
                       AIR SEA DIR/SP/G            HT/PER HT/PER
                 (UTC) (F)     (DEG/KT/KT) (MB)    (FT/S) (FT/S)
CHESAPEAKE LIGHT NOT AVBL
64 E VA BEACH    1350   69 67  230/  2/  2 1021.7    2/ 9   2/ 9
DUCK             1400   73 72  140/  6/  8 1020.7
2 E DUCK         1400      72                N/A     1/ 8
OREGON INLET     1400   75 75  110/  6/  8 1021.0
13E OREGON INLT  1348      71                N/A     2/ 8   2/ 8
HATTERAS CG      1400   76 76  100/  5/  7 1020.7
DIAMOND BUOY     1410   77 78  150/ 10/ 12 1021.4
CAPE LOOKOUT     1400          110/  5/  6 1020.7
BEAUFORT LAB     1400   77 77  130/  8/ 11 1020.8
30 SE NEW RVR IN 1408   77     130/  4/  6 1020.5
30 SE NEW RVR IN 1400      76                N/A     3/ 8
27 SE WRIGHTSVLE 1408   76 75  170/  8/ 14 1020.3
5 SE WRIGHTSVLE  1408   74 74   50/  2/  4 1019.8
225 S CAPE HAT   1410      78  150/  6/  8 1020.4
41 SE CHARLESTON 1400      76  100/  6/  8 1019.8

$$



USA.gov is the U.S. government's official web portal to all federal, state and local government web resources and services.